Weather observations for the past three days for
Yap Island - Yap Int. Airport
Imperial (Metric)
Date Time (+10) Wind (mph) Vis. (mi.) Weather Sky Cond. Temperature (ºF) Relative Humidity Wind Chill (°F) Heat Index (°F) Pressure Precipitation (in)
Air Dwpt 6 hour altimeter (in) sea level (mb) 1 hr 3 hr 6 hr
Max. Min.
06 17:52 Vrbl 7 12.00 Mostly Cloudy FEW016TCU SCT130 BKN300 83.5 81.5 94% 98 29.76 1007.8
06 16:52 NE 9 10.00 Light Showers Rain SCT016TCU SCT130 OVC300 80.8 79.2 95% 89 29.75 1007.6
06 15:56 NE 8 12.00 Mostly Cloudy SCT016TCU SCT130 BKN300 81 80.2 87.8 81 98% 90 29.74 1007.3 0.07
06 14:56 E 12 12.00 Mostly Cloudy SCT016TCU BKN300 87.8 79.5 77% 103 29.74 1007.3
06 13:52 E 8 12.00 Mostly Cloudy SCT016TCU BKN300 85.3 81.3 88% 102 29.77 1008.1
06 12:52 E 10 12.00 Mostly Cloudy SCT016TCU BKN300 87.6 79.5 77% 103 29.79 1008.8
06 11:53 E 10 12.00 Mostly Cloudy SCT016TCU BKN300 87.3 79.7 78% 103 29.8 1009.3
06 10:52 E 10 12.00 Mostly Cloudy SCT016TCU BKN300 87.6 80.2 79% 104 29.82 1010.0
06 09:50 E 8 12.00 Mostly Cloudy SCT016TCU SCT130 BKN300 86 80.6 86 80.1 84% 102 29.83 1010.3
06 08:55 E 10 12.00 Mostly Cloudy SCT016TCU SCT130 BKN300 84.6 79.9 86% 98 29.84 1010.5
06 07:50 E 8 12.00 Mostly Cloudy SCT016TCU SCT130 BKN300 82.4 79.7 92% 93 29.81 1009.6
06 06:50 Vrbl 5 12.00 Mostly Cloudy SCT016TCU SCT130 BKN300 80.4 79.2 96% 88 29.8 1009.1
06 05:55 Vrbl 5 12.00 Mostly Cloudy SCT016 SCT130 BKN300 80.1 79 97% 87 29.79 1009.0
06 04:52 Vrbl 7 12.00 Mostly Cloudy SCT016 SCT130 BKN300 80.8 78.8 94% 89 29.77 1008.3
06 03:52 Vrbl 6 12.00 Mostly Cloudy SCT016 SCT130 BKN300 80.1 78.8 82.2 80.1 96% 87 29.78 1008.4 0.03
06 01:55 E 8 12.00 Mostly Cloudy SCT016CB SCT130 BKN300 81.5 79.3 93% 91 29.8 1009.3
06 00:53 E 9 12.00 Mostly Cloudy FEW016 BKN300 82.2 78.8 89% 92 29.81 1009.6
05 23:50 E 8 12.00 Mostly Cloudy FEW016 BKN300 82.2 79.9 93% 93 29.83 1010.1
05 22:50 E 9 12.00 Mostly Cloudy FEW016 BKN300 82 79.9 93% 93 29.82 1010.0
05 21:52 Vrbl 7 12.00 Mostly Cloudy SCT016TCU BKN300 81.5 79.9 86 81.3 95% 91 29.82 1009.8 0.01
05 20:53 Vrbl 6 12.00 Mostly Cloudy FEW016 BKN300 81.3 80.4 97% 91 29.8 1009.3
05 19:51 Vrbl 6 12.00 Mostly Cloudy FEW016 BKN300 81.3 79.9 95% 91 29.79 1008.8
05 18:54 E 8 12.00 Mostly Cloudy FEW016 BKN300 82.6 78.6 88% 93 29.77 1008.1
05 17:53 Vrbl 7 12.00 Mostly Cloudy FEW016 BKN300 84 79.9 87% 97 29.75 1007.6
05 16:52 E 8 12.00 Mostly Cloudy SCT016 SCT130 BKN300 86 79.3 81% 100 29.75 1007.4
05 15:55 SE 8 12.00 Mostly Cloudy SCT016 SCT130 BKN300 85.5 80.1 87.1 84.2 84% 100 29.74 1007.3
05 14:50 SE 8 12.00 Mostly Cloudy FEW016 SCT130 BKN300 86.9 79 77% 101 29.76 1007.8
05 13:50 SE 10 12.00 Mostly Cloudy FEW016 SCT130 BKN300 87.1 80.1 80% 103 29.77 1008.1
05 12:52 E 9 12.00 Mostly Cloudy FEW016 SCT130 BKN300 86.4 80.1 82% 102 29.78 1008.6
05 11:52 E 9 12.00 Mostly Cloudy FEW016 SCT130 BKN300 86.9 79.9 80% 102 29.8 1009.3
05 10:53 E 12 12.00 Mostly Cloudy FEW016 SCT130 BKN300 86.9 79.5 79% 102 29.81 1009.6
05 09:53 Vrbl 7 12.00 Mostly Cloudy SCT016TCU SCT130 BKN300 84.2 81 84.2 80.2 90% 99 29.82 1009.8 0.03
05 08:51 Vrbl 6 G 10 12.00 Mostly Cloudy FEW016 SCT130 BKN300 82.4 80.2 93% 94 29.82 1009.8
05 07:53 Vrbl 7 G 14 12.00 Mostly Cloudy FEW016TCU SCT130 BKN300 80.2 79.3 97% 88 29.81 1009.5
05 06:52 SE 8 G 15 12.00 Overcast SCT016CB OVC300 81.7 80.1 95% 92 29.81 1009.5
05 05:55 SE 9 G 16 12.00 Overcast SCT016CB OVC300 81.7 80.1 95% 92 29.8 1009.1
05 04:54 SE 9 G 17 12.00 Overcast SCT016CB OVC300 80.4 79.5 97% 88 29.76 1007.9
05 03:57 Vrbl 7 G 16 12.00 Overcast SCT016CB OVC300 81.1 80.6 81.9 81 98% 91 29.76 1007.9 0.01
05 02:53 E 9 G 18 12.00 Overcast SCT016CB OVC300 81.5 80.4 97% 92 29.77 1008.3
05 01:51 Vrbl 7 G 15 12.00 Mostly Cloudy SCT016CB BKN300 81.9 80.2 95% 92 29.78 1008.6
05 00:53 Vrbl 7 12.00 Mostly Cloudy FEW016CB BKN300 81.5 80.1 95% 91 29.8 1009.1
04 23:50 E 9 12.00 Mostly Cloudy FEW016CB BKN300 81.7 80.2 95% 92 29.81 1009.5
04 22:53 E 10 12.00 Mostly Cloudy FEW016CB SCT130 BKN300 81 80.2 98% 90 29.81 1009.5
04 21:53 E 12 12.00 Mostly Cloudy FEW016CB SCT130 BKN300 81.3 79.7 85.1 80.4 95% 91 29.81 1009.5 0.09
04 20:54 E 8 12.00 Overcast FEW016CB SCT130 OVC300 81 79.5 95% 90 29.79 1009.0
04 19:52 E 8 12.00 Overcast SCT016CB SCT130 OVC300 81.3 79.7 95% 91 29.78 1008.4
04 18:54 E 9 12.00 Mostly Cloudy FEW016CB SCT130 BKN300 81 79.7 96% 90 29.76 1007.8 0.06
04 17:52 E 13 12.00 Mostly Cloudy SCT016CB BKN300 80.4 79 95% 88 29.74 1007.3
04 16:51 NE 14 G 25 12.00 Mostly Cloudy SCT016CB BKN300 81.1 80.1 97% 90 29.74 1007.1
04 15:53 E 12 12.00 Overcast SCT016CB OVC300 85.1 82.2 88.3 85.1 91% 103 29.74 1007.1 0.01
04 14:52 E 10 G 17 12.00 Overcast SCT016CB OVC300 85.3 81.3 88% 102 29.75 1007.4
04 13:53 E 18 G 25 12.00 Mostly Cloudy SCT016 BKN300 88.3 79.5 75% 104 29.76 1007.8
04 12:50 E 15 G 22 12.00 Mostly Cloudy SCT016TCU BKN300 87.8 80.2 78% 105 29.78 1008.4
04 11:51 E 15 G 24 12.00 Mostly Cloudy SCT016TCU BKN300 86.9 80.2 81% 103 29.8 1009.1
04 10:55 E 15 G 25 12.00 Mostly Cloudy FEW016 SCT130 BKN300 87.1 80.1 80% 103 29.81 1009.5
04 09:53 E 12 G 23 12.00 Mostly Cloudy FEW016 SCT130 BKN300 86.4 79.9 86.4 79.9 81% 102 29.81 1009.6
04 08:51 E 9 12.00 Mostly Cloudy FEW016 SCT130 BKN300 83.8 80.1 88% 97 29.81 1009.5
04 06:56 Vrbl 5 12.00 Mostly Cloudy FEW016 BKN130 BKN300 80.8 79.3 95% 89 29.77 1008.3
04 04:59 Vrbl 7 12.00 Overcast SCT016CB BKN130 OVC300 79.9 79 97% 86 29.76 1007.8
04 03:57 Vrbl 7 12.00 Overcast SCT016CB OVC120 80.2 79.2 80.4 78.8 97% 87 29.76 1007.9 0.01
04 02:55 E 12 12.00 Overcast SCT016CB OVC120 80.2 79.3 97% 88 29.76 1007.9
04 01:51 Vrbl 6 12.00 Overcast SCT016CB OVC120 80.4 79.3 97% 88 29.78 1008.4
04 00:54 Vrbl 7 12.00 Overcast SCT016CB OVC120 79.7 78.4 96% 86 29.79 1008.8 0.01
03 23:50 Vrbl 7 12.00 Overcast SCT016CB OVC120 80.2 79.5 98% 88 29.8 1009.3
03 22:51 NE 9 12.00 Overcast SCT016CB OVC120 79.3 78.8 98% 85 29.8 1009.1
03 21:51 E 12 12.00 Overcast SCT016CB OVC120 79.2 78.6 79.9 78.1 98% 84 29.8 1009.3 0.58
03 20:50 E 9 G 17 10.00 Light Showers Rain SCT016CB OVC120 78.1 77.5 98% 81 29.8 1009.1
03 19:52 E 9 G 21 10.00 Light Showers Rain SCT016CB OVC120 78.4 78.1 99% 82 29.79 1008.8
03 18:51 NE 8 12.00 Overcast SCT016CB OVC120 79.9 79 97% 86 29.77 1008.3 0.16
Date Time (+10) Wind (mph) Vis. (mi.) Weather Sky Cond. Air Dwpt Max. Min. Relative Humidity Wind Chill (°F) Heat Index (°F) altimeter (in) sea level (mb) 1 hr 3 hr 6 hr
6 hour
Temperature (ºF) Pressure Precipitation (in)